Weather in Peniche

Portugal     39°21′28″N   9°23′09″W
temp.,
°C
wind,
m/s
gust,
m/s
humid.,
%
clouds,
%
prec.,
mm/h
press.,
hPa
HPBL,
m
6 march, sat
sat600:00+14ne567751 0.1 1018170
03:00+14ene33731 0.0 101778
06:00+14ene33721 0.0 1018104
09:00+13ese34660 0.0 1019142
12:00+16e34690 0.0 102054
15:00+16nnw55680 0.0 1018114
18:00+15n68800 0.0 1018240
21:00+14nne57800 0.0 1020263
7 march, sun
sun700:00+14n45820 0.0 1020320
03:00+13nnw55860 0.0 1019367
06:00+13nnw44850 0.0 1019421
09:00+13n338365 0.0 1019429
12:00+13nnw448241 0.0 1020493
15:00+13nnw788776 0.0 1018532
18:00+12n898153 0.0 1018610
21:00+12nnw910800 0.0 1019720
8 march, mon
mon800:00+12nnw1011780 0.0 1019794
03:00+12nnw10117815 0.0 1018824
06:00+11nnw11127534 0.0 1018878
09:00+11nnw1314750 0.0 1019953
12:00+11n1113788 0.0 1019950
15:00+11nnw11127895 0.0 1018918
18:00+12n10127962 0.0 1018824
21:00+13n1012750 0.0 1019776
9 march, tue
tue900:00+13n1011750 0.0 1020721
03:00+13n911760 0.0 1019628
06:00+13n810800 0.0 1020545
09:00+12nne1012650 0.0 1022556
12:00+13n89644 0.0 1022427
15:00+13n897317 0.0 1021445
18:00+13n787525 0.0 1021414
21:00+13n89770 0.0 1024484
10 march, wed
wed1000:00+13nne577415 0.0 1024447
03:00+13nne567641 0.0 1024491
06:00+13nne568151 0.0 1025474
09:00+13nne568133 0.0 1026498
12:00+13n447720 0.0 1027406
15:00+14n55750 0.0 1026371
18:00+14n457812 0.0 1026353
21:00+14n45790 0.0 1028361